STARLINK-31051 (58719 NORAD) Tracking and Keplerian Element Data

This shows tracking and keplerian element data for the satellite.

Feedback or suggestion? Click here.




ElementValue
Catalog58719
NameSTARLINK-31051
Epoch Orbit265
Epoch Day13.25002315
Epoch Year2024
RAAN198.7743
Inclination53.1609
Eccentricity0.0001116
Argument of Perigee101.4629
Mean Anonmoly139.9661
Mean Motion15.51436469
Decay Rate-0.01745402
L11 58719U 24002Q 24013.25002315 -.01745402 00000+0 -32659-1 0 9996
L22 58719 53.1609 198.7743 0001116 101.4629 139.9661 15.51436469 2659



Live tracking and technical data element details for STARLINK-31051 (NORAD 58719). STARLINK-31051 can be tracked NOW for your location showing map with azimuth and elevation plus other details from your city location.







IsCatalogInMostPopularTable: catalog: 58719, numindb: 25
Update: records affected: 1



GetName: 58719 STARLINK-31051

Hit Count: updated at: Wed, 17 Apr 2024 03:03:36 GMT